FW7384 Weather Reports


Display with metric or nautical units.
time (UTC)temp
F
wind
direction
speed
MPH
gust
MPH
rain 1hr
in
rain 24hr
in
rain mn
in
humidity
%
barometer
mb
20260903191003 56 266 1.0 2.0 0.00 0.07 0.07 99 1004.7
20260903190503 56 308 1.0 2.0 0.00 0.07 0.07 99 1004.9
20260903190003 56 3 1.0 2.0 0.00 0.07 0.07 98 1004.8
20260903185504 56 345 0.0 2.0 0.00 0.07 0.07 98 1004.9
20260903185214 56 280 0.0 1.0 0.00 0.07 0.07 98 1004.7
20260903184504 56 223 0.0 1.0 0.00 0.07 0.07 98 1004.7
20260903184003 56 217 0.0 1.0 0.00 0.07 0.07 98 1004.9
20260903183503 56 352 0.0 1.0 0.00 0.07 0.07 98 1004.9
20260903183003 56 358 0.0 2.0 0.00 0.07 0.07 98 1004.8
20260903182713 56 357 0.0 2.0 0.00 0.07 0.07 98 1004.8
20260903182003 56 351 0.0 1.0 0.00 0.07 0.07 98 1004.8
20260903181504 56 44 0.0 1.0 0.00 0.07 0.07 98 1004.9
20260903181004 56 19 0.0 1.0 0.00 0.07 0.07 98 1004.9
20260903180503 56 22 0.0 1.0 0.00 0.07 0.07 98 1005.0
20260903180214 56 343 0.0 2.0 0.00 0.07 0.07 98 1004.9
20260903175503 56 324 0.0 2.0 0.00 0.07 0.07 98 1004.9
20260903175214 56 358 0.0 2.0 0.00 0.07 0.07 98 1004.9
20260903174715 56 5 1.0 2.0 0.00 0.07 0.07 98 1004.8
20260903174003 56 6 1.0 2.0 0.00 0.07 0.07 98 1004.8
20260903173503 57 11 1.0 2.0 0.01 0.07 0.07 98 1004.9
20260903173003 57 35 1.0 2.0 0.02 0.07 0.07 97 1005.0
20260903172503 57 97 0.0 1.0 0.04 0.07 0.07 97 1005.1
20260903172003 57 39 0.0 1.0 0.04 0.07 0.07 97 1005.2
20260903171503 57 50 0.0 2.0 0.04 0.07 0.07 97 1005.1
20260903171004 57 102 1.0 2.0 0.04 0.07 0.07 97 1005.4
20260903170503 57 123 1.0 2.0 0.05 0.07 0.07 97 1005.3
20260903170213 57 131 1.0 2.0 0.05 0.07 0.07 97 1005.6
20260903165503 57 129 0.0 2.0 0.05 0.07 0.07 97 1005.4
20260903165003 57 127 0.0 2.0 0.05 0.07 0.07 96 1005.3
20260903164714 57 125 0.0 2.0 0.06 0.07 0.07 96 1005.6
20260903164213 57 121 0.0 2.0 0.06 0.07 0.07 96 1005.4
20260903163503 57 134 1.0 3.0 0.05 0.06 0.06 96 1005.3
20260903163003 57 122 1.0 3.0 0.04 0.05 0.05 96 1005.6
20260903162714 57 120 1.0 3.0 0.03 0.04 0.04 96 1005.8
20260903162003 57 67 1.0 2.0 0.02 0.03 0.03 96 1005.8
20260903161714 57 1 0.0 2.0 0.02 0.03 0.03 96 1005.7
20260903161003 57 9 1.0 2.0 0.02 0.03 0.03 95 1005.7
20260903160503 57 7 0.0 2.0 0.02 0.02 0.02 95 1005.8
20260903160003 57 61 0.0 2.0 0.01 0.02 0.02 95 1005.8
20260903155503 58 134 0.0 2.0 0.01 0.02 0.02 95 1005.9
20260903155003 58 19 1.0 2.0 0.01 0.02 0.02 95 1005.9
20260903154504 58 19 1.0 2.0 0.00 0.01 0.01 94 1006.0
20260903154003 58 77 0.0 2.0 0.00 0.01 0.01 94 1006.2
20260903153503 58 155 0.0 2.0 0.00 0.01 0.01 94 1006.1
20260903153003 57 175 0.0 2.0 0.00 0.01 0.01 94 1006.2
20260903152503 57 167 1.0 3.0 0.00 0.01 0.01 94 1006.3
20260903152213 57 159 1.0 3.0 0.00 0.01 0.01 94 1006.4
20260903151503 58 164 1.0 3.0 0.00 0.01 0.01 94 1006.6
20260903151003 58 152 1.0 3.0 0.00 0.01 0.01 94 1006.6
20260903150504 58 156 1.0 4.0 0.00 0.01 0.01 93 1006.6
20260903150003 58 180 2.0 4.0 0.00 0.01 0.01 93 1006.6
20260903145713 58 190 2.0 6.0 0.00 0.01 0.01 93 1006.7
20260903145003 58 174 2.0 6.0 0.00 0.01 0.01 92 1006.7
20260903144504 58 177 3.0 6.0 0.00 0.01 0.01 92 1007.0
20260903144003 58 178 3.0 6.0 0.00 0.01 0.01 91 1006.8
20260903143503 58 177 3.0 6.0 0.00 0.01 0.01 90 1006.9
20260903143004 58 151 2.0 5.0 0.00 0.01 0.01 90 1007.0
20260903142713 58 146 2.0 5.0 0.00 0.01 0.01 91 1007.0
20260903142003 58 187 1.0 4.0 0.00 0.01 0.01 91 1007.1
20260903141503 58 175 2.0 4.0 0.01 0.01 0.01 92 1007.2
20260903141003 57 174 2.0 4.0 0.01 0.01 0.01 92 1007.1
20260903140503 57 175 2.0 5.0 0.01 0.01 0.01 92 1007.2
20260903140003 57 163 2.0 5.0 0.01 0.01 0.01 92 1007.3
20260903135503 57 165 2.0 5.0 0.01 0.01 0.01 92 1007.2
20260903135003 57 172 1.0 4.0 0.01 0.01 0.01 92 1007.4
20260903134713 57 173 1.0 4.0 0.01 0.01 0.01 92 1007.3
20260903134214 57 172 1.0 2.0 0.01 0.01 0.01 92 1007.3
20260903133503 57 160 2.0 5.0 0.01 0.01 0.01 93 1007.5
20260903133214 56 159 2.0 5.0 0.01 0.01 0.01 92 1007.6
20260903132503 57 169 2.0 4.0 0.00 0.00 0.00 92 1007.5
20260903132003 57 158 2.0 4.0 0.00 0.00 0.00 91 1007.8
20260903131503 57 171 2.0 5.0 0.00 0.00 0.00 91 1007.8
20260903131003 57 180 3.0 6.0 0.00 0.00 0.00 91 1007.6
20260903130503 57 183 3.0 6.0 0.00 0.00 0.00 89 1007.8
20260903130214 57 185 3.0 6.0 0.00 0.00 0.00 88 1007.8
20260903125503 57 183 4.0 7.0 0.00 0.00 0.00 87 1007.8
20260903125003 57 183 4.0 8.0 0.00 0.00 0.00 86 1008.0
20260903124715 58 187 4.0 8.0 0.00 0.00 0.00 85 1008.0
20260903124214 58 190 3.0 8.0 0.00 0.00 0.00 84 1008.0
20260903123504 58 185 3.0 6.0 0.00 0.00 0.00 84 1008.1
20260903123003 58 188 3.0 7.0 0.00 0.00 0.00 84 1008.2
20260903122503 58 195 3.0 7.0 0.00 0.00 0.00 84 1008.1
20260903122003 58 195 3.0 7.0 0.00 0.00 0.00 83 1008.2
20260903121712 58 183 2.0 7.0 0.00 0.00 0.00 83 1008.1
20260903121213 57 178 2.0 6.0 0.00 0.00 0.00 84 1008.3
20260903120503 57 185 4.0 13.0 0.00 0.00 0.00 84 1008.5
20260903120004 57 179 5.0 13.0 0.00 0.00 0.00 84 1008.5
20260903115503 57 177 5.0 11.0 0.00 0.00 0.00 83 1008.4
20260903115003 57 172 5.0 8.0 0.00 0.00 0.00 84 1008.5
20260903114714 57 169 5.0 8.0 0.00 0.00 0.00 83 1008.6
20260903114213 57 181 4.0 6.0 0.00 0.00 0.00 84 1008.6
20260903113503 57 180 3.0 8.0 0.00 0.00 0.00 83 1008.6
20260903113003 57 181 4.0 9.0 0.00 0.00 0.00 84 1008.7
20260903112714 56 179 5.0 9.0 0.00 0.00 0.00 84 1008.7
20260903112003 56 165 4.0 9.0 0.00 0.00 0.00 84 1008.7
20260903111503 56 177 4.0 11.0 0.00 0.00 0.00 85 1008.7
20260903111003 56 178 5.0 11.0 0.00 0.00 0.00 84 1008.9
20260903110503 56 177 5.0 9.0 0.00 0.00 0.00 85 1008.8
20260903110213 56 182 4.0 9.0 0.00 0.00 0.00 84 1008.9
20260903105503 56 189 4.0 8.0 0.00 0.00 0.00 85 1009.0
20260903105213 56 196 4.0 8.0 0.00 0.00 0.00 84 1009.2
20260903104714 56 180 4.0 8.0 0.00 0.00 0.00 84 1009.1
20260903104004 56 179 4.0 9.0 0.00 0.00 0.00 83 1009.1
20260903103503 56 188 4.0 9.0 0.00 0.00 0.00 83 1009.3
20260903103003 56 193 4.0 8.0 0.00 0.00 0.00 83 1009.5
20260903102503 56 197 5.0 8.0 0.00 0.00 0.00 82 1009.3
20260903102003 56 194 4.0 8.0 0.00 0.00 0.00 82 1009.2
20260903101503 56 187 3.0 6.0 0.00 0.00 0.00 82 1009.4
20260903101003 56 209 3.0 7.0 0.00 0.00 0.00 81 1009.3
20260903100503 56 213 3.0 7.0 0.00 0.00 0.00 81 1009.3
20260903100004 56 190 4.0 6.0 0.00 0.00 0.00 80 1009.6
20260903095503 56 186 3.0 6.0 0.00 0.00 0.00 80 1009.5
20260903095003 56 189 3.0 7.0 0.00 0.00 0.00 80 1009.6
20260903094504 56 188 4.0 9.0 0.00 0.00 0.00 79 1009.6
20260903094003 57 208 3.0 9.0 0.00 0.00 0.00 79 1009.8
20260903093504 57 205 3.0 8.0 0.00 0.00 0.00 78 1009.6
20260903093004 56 203 4.0 8.0 0.00 0.00 0.00 78 1009.7
20260903092713 57 212 4.0 8.0 0.00 0.00 0.00 78 1009.9
20260903092003 57 199 3.0 8.0 0.00 0.00 0.00 77 1010.0
20260903091503 57 208 3.0 8.0 0.00 0.00 0.00 77 1010.0
20260903091003 56 205 4.0 8.0 0.00 0.00 0.00 76 1009.9
20260903090503 57 208 3.0 7.0 0.00 0.00 0.00 77 1009.8
20260903090003 56 242 2.0 6.0 0.00 0.00 0.00 76 1009.9
20260903085503 56 219 3.0 9.0 0.00 0.00 0.00 77 1009.9
20260903085003 56 194 4.0 9.0 0.00 0.00 0.00 76 1010.0
20260903084713 56 185 4.0 8.0 0.00 0.00 0.00 76 1009.9
20260903084004 56 217 2.0 7.0 0.00 0.00 0.00 77 1010.0
20260903083713 56 228 2.0 7.0 0.00 0.00 0.00 77 1010.1
20260903083214 56 215 3.0 10.0 0.00 0.00 0.00 78 1010.2
20260903082713 56 195 4.0 10.0 0.00 0.00 0.00 77 1010.0
20260903082003 56 184 5.0 9.0 0.00 0.00 0.00 78 1010.1
20260903081503 55 198 4.0 10.0 0.00 0.00 0.00 78 1010.2
20260903081214 56 194 4.0 10.0 0.00 0.00 0.00 78 1010.2
20260903080713 56 206 2.0 10.0 0.00 0.00 0.00 78 1010.1
20260903080003 55 242 2.0 8.0 0.00 0.00 0.00 78 1010.1
20260903075713 54 228 3.0 8.0 0.00 0.00 0.00 79 1010.3
20260903075003 54 177 4.0 8.0 0.00 0.00 0.00 80 1010.2
20260903074503 54 184 4.0 8.0 0.00 0.00 0.00 80 1010.2
20260903074214 54 195 3.0 7.0 0.00 0.00 0.00 80 1010.0
20260903073503 54 191 3.0 6.0 0.00 0.00 0.00 82 1010.1
20260903073214 54 182 3.0 6.0 0.00 0.00 0.00 82 1010.2
20260903072715 53 177 3.0 6.0 0.00 0.00 0.00 82 1010.3
20260903072003 53 179 4.0 6.0 0.00 0.00 0.00 82 1010.1
20260903071713 53 182 3.0 6.0 0.00 0.00 0.00 82 1010.2
20260903071003 53 175 3.0 8.0 0.00 0.00 0.00 83 1010.2
20260903070503 53 170 4.0 8.0 0.00 0.00 0.00 81 1010.3
20260903070213 53 168 3.0 7.0 0.00 0.00 0.00 82 1010.1
20260903065503 53 183 3.0 6.0 0.00 0.00 0.00 81 1010.5
20260903065003 52 189 3.0 6.0 0.00 0.00 0.00 83 1010.3
20260903064503 52 183 4.0 8.0 0.00 0.00 0.00 84 1010.3
20260903064213 52 185 4.0 8.0 0.00 0.00 0.00 84 1010.7
20260903063503 51 182 4.0 8.0 0.00 0.00 0.00 85 1010.6
20260903063213 51 176 3.0 7.0 0.00 0.00 0.00 86 1010.5
20260903062503 50 164 3.0 6.0 0.00 0.00 0.00 87 1010.6
20260903062004 50 159 4.0 6.0 0.00 0.00 0.00 88 1010.7
20260903061503 50 161 3.0 6.0 0.00 0.00 0.00 87 1010.5
20260903061003 49 179 3.0 6.0 0.00 0.00 0.00 88 1010.5
20260903060504 49 188 3.0 6.0 0.00 0.00 0.00 89 1010.8
20260903060213 49 187 3.0 7.0 0.00 0.00 0.00 89 1010.7
20260903055503 48 171 4.0 8.0 0.00 0.00 0.00 90 1010.8
20260903055003 48 167 4.0 9.0 0.00 0.00 0.00 91 1010.7
20260903054714 48 167 4.0 9.0 0.00 0.00 0.00 91 1010.8
20260903054003 47 148 3.0 4.0 0.00 0.00 0.00 93 1010.8
20260903053503 47 144 3.0 6.0 0.00 0.00 0.00 94 1010.6
20260903053003 46 151 3.0 6.0 0.00 0.00 0.00 95 1010.8
20260903052714 46 141 2.0 6.0 0.00 0.00 0.00 96 1010.8
20260903052213 46 108 1.0 4.0 0.00 0.00 0.00 96 1010.8
20260903051714 46 100 1.0 4.0 0.00 0.00 0.00 96 1010.9
20260903051213 45 123 1.0 4.0 0.00 0.00 0.00 97 1010.8
20260903050503 45 132 0.0 3.0 0.00 0.00 0.00 96 1010.8
20260903050213 45 68 0.0 2.0 0.00 0.00 0.00 96 1011.0
20260903045503 45 59 0.0 1.0 0.00 0.00 0.00 95 1010.8
20260903045003 46 43 0.0 2.0 0.00 0.00 0.00 95 1010.8
20260903044714 46 30 0.0 2.0 0.00 0.00 0.00 95 1011.0
20260903044003 46 27 1.0 2.0 0.00 0.00 0.00 95 1010.9
20260903043503 46 72 1.0 2.0 0.00 0.00 0.00 94 1010.7
20260903043003 47 106 0.0 2.0 0.00 0.00 0.00 93 1010.9
20260903042503 47 98 0.0 3.0 0.00 0.00 0.00 93 1010.9
20260903042004 47 128 0.0 3.0 0.00 0.00 0.00 93 1010.6
20260903041503 48 152 1.0 3.0 0.00 0.00 0.00 92 1010.9
20260903041003 48 160 1.0 3.0 0.00 0.00 0.00 92 1011.0
20260903040503 48 173 2.0 3.0 0.00 0.00 0.00 92 1010.9
20260903040003 48 178 2.0 3.0 0.00 0.00 0.00 91 1010.9
20260903035503 49 185 1.0 4.0 0.00 0.00 0.00 91 1011.1
20260903035003 49 186 1.0 4.0 0.00 0.00 0.00 91 1010.8
20260903034504 49 183 1.0 4.0 0.00 0.00 0.00 90 1010.9
20260903034003 49 190 2.0 6.0 0.00 0.00 0.00 89 1010.8
20260903033503 49 195 2.0 7.0 0.00 0.00 0.00 89 1010.8
20260903033214 49 197 2.0 7.0 0.00 0.00 0.00 89 1010.8
20260903032713 49 197 2.0 7.0 0.00 0.00 0.00 89 1010.9
20260903032214 49 200 2.0 4.0 0.00 0.00 0.00 89 1011.0
20260903031503 49 195 2.0 5.0 0.00 0.00 0.00 88 1011.1
20260903031003 49 199 2.0 6.0 0.00 0.00 0.00 87 1010.7
20260903030713 50 201 2.0 6.0 0.00 0.00 0.00 87 1010.9
20260903030214 50 203 2.0 6.0 0.00 0.00 0.00 86 1010.8
20260903025503 50 215 2.0 5.0 0.00 0.00 0.00 86 1010.9
20260903025214 50 218 2.0 5.0 0.00 0.00 0.00 86 1010.8
20260903024503 50 213 2.0 11.0 0.00 0.00 0.00 88 1011.1
20260903024214 50 222 2.0 11.0 0.00 0.00 0.00 88 1011.1
20260903023713 50 223 2.0 11.0 0.00 0.00 0.00 90 1011.0
20260903023003 49 212 2.0 6.0 0.00 0.00 0.00 91 1011.2
20260903022504 49 197 3.0 6.0 0.00 0.00 0.00 91 1011.1
20260903022003 49 200 4.0 6.0 0.00 0.00 0.00 91 1011.3
20260903021715 49 199 4.0 6.0 0.00 0.00 0.00 90 1011.2
20260903021003 49 193 3.0 6.0 0.00 0.00 0.00 92 1011.4
20260903020503 48 190 2.0 6.0 0.00 0.00 0.00 93 1011.3
20260903020003 48 187 2.0 4.0 0.00 0.00 0.00 94 1011.3
20260903015503 48 192 2.0 4.0 0.00 0.00 0.00 94 1011.4
20260903015214 48 182 2.0 4.0 0.00 0.00 0.00 94 1011.4
20260903014503 48 191 2.0 5.0 0.00 0.00 0.00 94 1011.4
20260903014003 48 178 2.0 5.0 0.00 0.00 0.00 94 1011.4
20260903013504 48 167 2.0 4.0 0.00 0.00 0.00 95 1011.5
20260903013003 48 190 2.0 4.0 0.00 0.00 0.00 95 1011.4
20260903012503 48 195 1.0 4.0 0.00 0.00 0.00 95 1011.5
20260903012213 47 181 1.0 3.0 0.00 0.00 0.00 95 1011.3
20260903011503 48 168 1.0 4.0 0.00 0.00 0.00 95 1011.5
20260903011003 48 162 1.0 4.0 0.00 0.00 0.00 94 1011.3
20260903010504 48 160 1.0 4.0 0.00 0.00 0.00 94 1011.5
20260903010003 48 154 1.0 4.0 0.00 0.00 0.00 94 1011.7
20260903005503 48 151 1.0 4.0 0.00 0.00 0.00 93 1011.8
20260903005213 48 172 2.0 5.0 0.00 0.00 0.00 93 1011.8
20260903004504 49 192 2.0 5.0 0.00 0.00 0.00 93 1011.5
20260903004003 49 201 2.0 4.0 0.00 0.00 0.00 92 1011.7
20260903003503 49 197 3.0 5.0 0.00 0.00 0.00 92 1011.6
20260903003003 49 191 2.0 5.0 0.00 0.00 0.00 92 1011.7
20260903002714 49 192 2.0 5.0 0.00 0.00 0.00 92 1011.6
20260903002213 49 204 2.0 5.0 0.00 0.00 0.00 91 1011.5
20260903001503 49 203 2.0 5.0 0.00 0.00 0.00 92 1011.9
20260903001003 49 200 2.0 5.0 0.00 0.00 0.00 92 1011.7
20260903000503 49 206 2.0 5.0 0.00 0.00 0.00 92 1011.7
20260903000004 49 211 2.0 5.0 0.00 0.00 0.00 92 1011.7
20260902235503 49 195 2.0 6.0 0.00 0.00 0.00 92 1011.6
20260902235003 49 192 2.0 6.0 0.00 0.00 0.00 93 1011.5
20260902234503 49 201 2.0 4.0 0.00 0.00 0.00 93 1011.7
20260902234003 49 193 2.0 5.0 0.00 0.00 0.00 92 1011.8
20260902233503 49 185 3.0 5.0 0.00 0.00 0.00 92 1011.6
20260902233003 49 190 3.0 7.0 0.00 0.00 0.00 92 1011.5
20260902232503 49 214 2.0 7.0 0.00 0.00 0.00 91 1011.6
20260902232003 50 216 2.0 7.0 0.00 0.00 0.00 91 1011.8
20260902231503 50 190 3.0 7.0 0.00 0.00 0.00 91 1011.8
20260902231003 50 189 3.0 7.0 0.00 0.00 0.00 91 1011.7
20260902230714 50 192 3.0 7.0 0.00 0.00 0.00 91 1011.6
20260902230212 50 200 3.0 7.0 0.00 0.00 0.00 91 1011.6
20260902225503 50 203 3.0 6.0 0.00 0.00 0.00 91 1011.7
20260902225212 50 204 3.0 6.0 0.00 0.00 0.00 91 1011.7
20260902224504 50 188 3.0 6.0 0.00 0.00 0.00 91 1011.8
20260902224212 50 192 3.0 6.0 0.00 0.00 0.00 91 1011.8
20260902223713 50 202 3.0 6.0 0.00 0.00 0.00 91 1011.7
20260902223003 50 191 3.0 5.0 0.00 0.00 0.00 91 1011.7
20260902222503 51 191 3.0 5.0 0.00 0.00 0.00 91 1011.7
20260902222004 51 187 3.0 7.0 0.00 0.00 0.00 90 1011.8
20260902221503 51 193 2.0 7.0 0.00 0.00 0.00 89 1011.8
20260902221214 51 196 3.0 7.0 0.00 0.00 0.00 89 1011.9
20260902220503 51 198 3.0 7.0 0.00 0.00 0.00 88 1011.8
20260902220004 51 200 3.0 7.0 0.00 0.00 0.00 88 1011.7
20260902215503 52 192 3.0 7.0 0.00 0.00 0.00 87 1011.8
20260902215214 52 196 3.0 7.0 0.00 0.00 0.00 87 1011.9
20260902214713 52 202 3.0 8.0 0.00 0.00 0.00 87 1011.8
20260902214214 52 217 3.0 8.0 0.00 0.00 0.00 87 1011.7
20260902213503 52 221 3.0 7.0 0.00 0.00 0.00 88 1011.7
20260902213003 52 213 3.0 8.0 0.00 0.00 0.00 88 1011.7
20260902212503 52 206 4.0 8.0 0.00 0.00 0.00 88 1011.8
20260902212003 52 211 3.0 7.0 0.00 0.00 0.00 89 1011.6
20260902211503 52 191 3.0 13.0 0.00 0.00 0.00 89 1011.6
20260902211003 52 186 4.0 13.0 0.00 0.00 0.00 89 1011.6
20260902210503 52 216 3.0 7.0 0.00 0.00 0.00 89 1011.6
20260902210003 52 204 4.0 10.0 0.00 0.00 0.00 90 1011.6
20260902205503 52 194 4.0 10.0 0.00 0.00 0.00 89 1011.8
20260902205214 52 205 3.0 10.0 0.00 0.00 0.00 90 1011.6
20260902204503 52 217 3.0 7.0 0.00 0.00 0.00 90 1011.9
20260902204003 52 207 3.0 6.0 0.00 0.00 0.00 91 1011.6
20260902203504 52 197 3.0 6.0 0.00 0.00 0.00 92 1011.9
20260902203003 52 203 2.0 6.0 0.00 0.00 0.00 92 1011.9
20260902202503 52 224 2.0 6.0 0.00 0.00 0.00 92 1012.0
20260902202214 52 222 2.0 6.0 0.00 0.00 0.00 91 1011.9
20260902201504 52 197 3.0 6.0 0.00 0.00 0.00 92 1012.0
20260902201003 52 191 2.0 4.0 0.00 0.00 0.00 92 1011.9
20260902200503 52 205 1.0 4.0 0.00 0.00 0.00 91 1011.9
20260902200213 52 204 1.0 4.0 0.00 0.00 0.00 91 1011.9
20260902195503 52 201 1.0 4.0 0.00 0.00 0.00 90 1011.9
20260902195003 52 204 1.0 4.0 0.00 0.00 0.00 91 1011.8
20260902194503 52 190 1.0 4.0 0.00 0.00 0.00 90 1012.0
20260902194003 52 188 1.0 4.0 0.00 0.00 0.00 90 1011.8
20260902193714 52 191 1.0 4.0 0.00 0.00 0.00 90 1011.9
20260902193213 52 207 0.0 2.0 0.00 0.00 0.00 90 1011.9
20260902192504 52 228 0.0 2.0 0.00 0.00 0.00 89 1011.9
20260902192004 52 206 0.0 2.0 0.00 0.00 0.00 89 1011.9
20260902191504 53 231 0.0 2.0 0.00 0.00 0.00 88 1011.9